FW5123 Weather Reports


Display with metric or nautical units.
time (UTC)temp
F
wind
direction
speed
MPH
gust
MPH
rain 1hr
in
rain 24hr
in
rain mn
in
humidity
%
barometer
mb
20260507110029 35 295 0.0 2.0 0.00 0.30 0.00 93 1013.6
20260507104528 35 295 1.0 3.0 0.00 0.35 0.00 94 1013.4
20260507103044 34 308 1.0 3.0 0.00 0.35 0.00 95 1013.3
20260507101533 33 309 1.0 2.0 0.00 0.35 0.00 94 1013.1
20260507100031 33 310 0.0 2.0 0.00 0.35 0.00 94 1013.1
20260507094532 33 310 0.0 2.0 0.00 0.39 0.00 94 1012.9
20260507093025 33 310 0.0 1.0 0.00 0.39 0.00 94 1013.0
20260507091535 34 310 0.0 1.0 0.00 0.39 0.00 93 1012.8
20260507090029 34 310 0.0 1.0 0.00 0.39 0.00 93 1013.1
20260507084537 34 310 0.0 1.0 0.00 0.43 0.00 92 1013.2
20260507083022 35 310 0.0 0.0 0.00 0.43 0.00 92 1013.1
20260507081520 35 310 0.0 1.0 0.00 0.43 0.00 92 1013.3
20260507080019 35 310 0.0 0.0 0.00 0.43 0.00 92 1013.2
20260507074518 36 310 0.0 0.0 0.00 0.46 0.00 90 1013.2
20260507073015 36 310 0.0 2.0 0.00 0.46 0.00 89 1013.1
20260507071520 37 310 0.0 2.0 0.00 0.46 0.00 88 1013.0
20260507070014 37 310 1.0 2.0 0.00 0.46 0.00 88 1012.9
20260507064511 37 310 0.0 2.0 0.00 0.47 0.00 87 1012.8
20260507063009 37 310 0.0 3.0 0.00 0.47 0.00 87 1013.0
20260507061508 37 310 1.0 3.0 0.00 0.47 0.00 87 1013.4
20260507060012 37 310 1.0 3.0 0.00 0.47 0.00 87 1013.2
20260507054506 37 310 1.0 3.0 0.00 0.47 0.00 88 1013.2
20260507053007 37 310 2.0 4.0 0.00 0.47 0.00 89 1013.3
20260507051504 38 305 2.0 4.0 0.00 0.47 0.00 88 1013.3
20260507050014 38 305 1.0 3.0 0.00 0.47 0.00 89 1013.3
20260507044503 38 304 2.0 4.0 0.00 0.47 0.00 90 1013.5
20260507043002 38 315 2.0 3.0 0.00 0.47 0.00 91 1013.5
20260507041605 39 314 2.0 5.0 0.00 0.47 0.00 92 1013.3
20260507040056 39 317 3.0 5.0 0.00 0.47 0.00 93 1013.3
20260507034555 40 312 3.0 4.0 0.00 0.47 0.47 94 1013.0
20260507033053 40 312 1.0 4.0 0.00 0.47 0.47 94 1012.7
20260507031549 40 312 1.0 3.0 0.00 0.47 0.47 94 1012.6
20260507030048 41 312 1.0 4.0 0.00 0.47 0.47 94 1012.2
20260507024551 41 309 1.0 3.0 0.00 0.47 0.47 95 1012.3
20260507023049 41 307 2.0 3.0 0.00 0.47 0.47 95 1012.4
20260507021600 41 306 2.0 4.0 0.00 0.47 0.47 95 1012.7
20260507020106 42 303 2.0 5.0 0.00 0.47 0.47 96 1012.8
20260507014606 42 310 1.0 5.0 0.00 0.47 0.47 96 1012.6
20260507013050 42 307 3.0 5.0 0.00 0.47 0.47 97 1012.5
20260507011556 42 301 2.0 4.0 0.00 0.47 0.47 97 1012.6
20260507010047 42 298 2.0 4.0 0.00 0.47 0.47 97 1012.5
20260507004544 43 301 2.0 4.0 0.00 0.47 0.47 97 1012.5
20260507003042 43 308 1.0 3.0 0.00 0.47 0.47 97 1012.2
20260507001555 43 312 1.0 3.0 0.00 0.47 0.47 97 1011.8
20260507000048 43 312 1.0 3.0 0.00 0.47 0.47 97 1011.5
20260506234549 43 312 1.0 2.0 0.00 0.48 0.47 97 1011.3
20260506233041 43 312 0.0 2.0 0.00 0.48 0.47 97 1011.1
20260506231537 43 312 1.0 3.0 0.01 0.48 0.47 97 1011.1
20260506230037 43 312 0.0 2.0 0.01 0.48 0.47 97 1010.8
20260506224536 43 312 0.0 4.0 0.01 0.48 0.47 97 1010.8
20260506223032 43 312 2.0 4.0 0.01 0.48 0.47 97 1010.7
20260506221533 43 12 2.0 5.0 0.00 0.47 0.46 97 1010.5
20260506220032 44 310 2.0 4.0 0.00 0.47 0.46 97 1010.3
20260506214529 43 306 1.0 3.0 0.00 0.50 0.46 97 1010.2
20260506213035 44 305 0.0 3.0 0.00 0.50 0.46 97 1010.0
20260506211538 43 321 2.0 4.0 0.00 0.50 0.46 97 1009.8
20260506210034 43 343 1.0 5.0 0.00 0.50 0.46 97 1009.7
20260506204531 43 319 3.0 6.0 0.00 0.50 0.46 97 1009.6
20260506203025 43 322 1.0 3.0 0.00 0.50 0.46 97 1009.4
20260506201533 43 317 0.0 4.0 0.00 0.50 0.46 97 1009.2
20260506200029 43 338 1.0 4.0 0.00 0.50 0.46 97 1009.0
20260506194525 43 320 2.0 4.0 0.00 0.50 0.46 97 1009.0
20260506193036 44 326 2.0 4.0 0.00 0.50 0.46 97 1008.8
20260506191522 44 338 1.0 3.0 0.00 0.50 0.46 97 1008.4
20260506190021 44 339 2.0 4.0 0.00 0.50 0.46 97 1008.4
20260506184524 44 359 1.0 3.0 0.00 0.54 0.46 97 1008.4
20260506183015 43 4 1.0 4.0 0.00 0.54 0.46 97 1008.2
20260506181533 43 348 2.0 4.0 0.00 0.54 0.46 97 1008.1
20260506180014 43 348 2.0 4.0 0.01 0.54 0.46 96 1008.1
20260506174515 43 349 2.0 4.0 0.01 0.54 0.46 96 1007.7
20260506173031 42 344 2.0 4.0 0.02 0.54 0.46 96 1007.4
20260506171520 42 16 2.0 4.0 0.03 0.54 0.46 96 1007.2
20260506170020 42 330 2.0 4.0 0.04 0.54 0.46 96 1007.0
20260506164521 42 350 1.0 3.0 0.05 0.53 0.45 96 1007.0
20260506163017 41 359 1.0 4.0 0.04 0.52 0.44 96 1007.0
20260506161513 42 4 3.0 5.0 0.03 0.51 0.43 95 1007.2
20260506160010 42 322 3.0 6.0 0.03 0.50 0.42 95 1006.9
20260506154507 44 4 2.0 4.0 0.03 0.49 0.41 95 1006.5
20260506153006 46 10 1.0 3.0 0.02 0.48 0.40 94 1006.0
20260506151507 51 64 0.0 4.0 0.03 0.48 0.40 93 1005.8
20260506150010 53 185 1.0 5.0 0.02 0.47 0.39 96 1005.7
20260506144503 53 216 1.0 7.0 0.02 0.46 0.38 96 1005.6
20260506143002 53 249 1.0 4.0 0.02 0.46 0.38 96 1005.8
20260506141501 53 204 1.0 3.0 0.03 0.45 0.37 96 1005.3
20260506140003 53 185 0.0 3.0 0.04 0.45 0.37 96 1005.1
20260506134501 52 216 0.0 6.0 0.04 0.44 0.36 96 1005.1
20260506133001 53 206 2.0 5.0 0.06 0.44 0.36 96 1005.3
20260506131503 53 245 1.0 8.0 0.06 0.42 0.34 95 1005.5
20260506130002 53 304 2.0 7.0 0.10 0.41 0.33 95 1005.4
20260506124502 53 183 2.0 10.0 0.11 0.40 0.32 95 1005.4
20260506121558 53 253 3.0 11.0 0.10 0.36 0.28 95 1005.7
20260506120058 53 233 4.0 13.0 0.07 0.32 0.24 95 1005.7
20260506114604 53 240 4.0 8.0 0.05 0.28 0.21 95 1005.4
20260506111556 53 253 3.0 11.0 0.05 0.27 0.19 95 1005.3